Location: Newark
(7.0858°N, 171.3717°E)
Time: 00:54:46
(UTC+00:00)

Transit 4A - Pass Details

Date: 01 December 2020
Orbit: 864 x 980 km, 66.8° (Epoch: 20 January)

Event Time Altitude Azimuth Distance (km) Brightness Sun altitude
Rises 05:13:58 0° 3° (N) 3,603 10.7 13.3°
Reaches altitude 10° 05:17:07 10° 17° (NNE) 2,639 9.9 12.6°
Maximum altitude 05:21:47 23° 67° (ENE) 1,865 9.0 11.5°
Drops below altitude 10° 05:26:21 10° 117° (ESE) 2,579 9.9 10.5°
Sets 05:29:21 0° 132° (SE) 3,501 10.7 9.8°
